RH
3 3 3 4 3 2 2 4 6 6 6 7 6 5 5 6 5 5 4 6 7 3 2 2 2 2 2 2 2 2 2 2 2 2 3 3 3 2 2 2 2 3 3 3 3 3 4 4 4 5 6 6 6 7 7 7 7 7 8 9 8 8 8 9 12 15 15 15 15 17 18 18 18 18 18 17 16 17 17 19 19 18 18 19 19 19 17 15
1 2 2 3 3 1 4 11 17 16 10 4 4 6 5 5 4 4 2 3 4 3 2 2 2 2 2 2 2 2 2 2 2 2 3 3 2 2 2 2 2 3 3 3 3 3 3 3 4 4 4 5 5 5 5 5 6 6 6 6 6 7 9 11 15 17 18 18 17 18 18 18 19 18 16 14 14 16 17 16 17 16 16 17 18 18 17 15
1 2 1 2 2 1 5 16 23 24 19 6 2 10 12 9 3 2 3 2 2 2 2 2 2 2 2 2 2 2 2 2 2 4 4 4 3 2 2 2 2 3 3 3 3 3 3 3 3 3 4 4 4 4 4 4 5 5 6 7 9 12 14 16 19 20 19 18 16 17 17 19 20 16 15 16 13 14 17 17 16 15 14 14 14 15 15 14
1 1 1 1 2 1 3 8 10 14 21 14 3 8 16 13 4 2 2 2 2 2 2 2 2 2 2 2 2 3 3 3 4 6 6 5 4 2 2 2 2 2 2 2 3 3 3 3 4 3 4 3 4 4 4 5 7 8 11 13 15 16 17 19 19 18 17 17 17 18 19 18 16 15 17 18 13 12 16 19 19 17 15 15 14 16 17 17
1 1 2 1 1 2 2 2 2 3 11 10 3 4 9 8 3 2 2 2 2 2 2 2 2 3 2 3 3 3 4 5 5 6 6 5 4 3 2 2 2 2 2 2 3 3 3 3 4 4 5 6 7 8 9 11 13 14 15 17 17 16 16 17 16 16 16 17 18 18 17 16 14 15 18 18 17 18 21 22 23 22 21 21 20 20 21 21
2 1 1 1 1 2 2 2 2 2 2 3 2 3 3 2 2 3 3 2 2 2 2 2 3 3 3 3 3 3 3 4 5 5 5 4 4 3 2 2 2 2 2 2 3 5 7 9 10 11 12 13 14 15 15 16 15 15 14 14 14 14 14 15 15 16 16 15 15 15 15 16 14 15 19 22 25 26 26 24 24 24 24 23 23 22 21 20
2 2 1 2 1 1 2 2 2 2 2 2 3 3 2 3 3 3 3 3 2 2 3 3 3 3 3 3 3 3 3 4 4 4 4 4 4 3 2 1 1 2 4 7 10 13 15 14 14 14 14 15 15 14 14 13 12 11 12 12 12 12 13 14 14 14 12 11 12 13 14 14 13 16 23 27 29 27 25 24 23 22 21 22 22 22 20 19
2 2 2 2 2 2 2 2 2 2 3 3 3 3 3 3 3 3 3 2 3 3 3 4 4 3 3 3 3 3 4 4 3 3 2 2 2 2 2 4 7 9 13 15 16 15 13 10 10 10 12 12 11 10 9 10 10 10 11 9 9 10 12 12 11 10 9 9 11 13 13 14 16 21 26 28 28 26 24 24 23 22 21 21 21 21 20 20
2 2 2 2 2 2 2 2 3 3 3 3 3 4 4 4 3 3 3 3 4 4 4 4 3 3 3 3 3 4 5 5 4 5 6 7 9 9 11 12 13 14 13 13 12 9 8 8 8 10 11 10 10 8 8 9 9 10 10 8 8 10 9 9 9 8 6 7 9 11 14 17 21 23 26 29 27 25 25 25 24 23 22 21 21 21 20 20
3 3 3 3 3 3 3 3 3 3 4 4 4 4 4 4 4 4 4 5 5 4 4 4 3 4 3 4 5 6 9 10 11 12 13 15 14 13 12 11 10 9 8 8 8 8 8 8 8 10 11 10 9 8 9 10 9 10 9 7 8 9 7 7 7 5 6 8 8 10 16 22 23 21 22 26 24 23 24 23 23 22 20 20 19 20 20 20
4 4 3 3 4 3 3 3 4 4 5 5 5 5 5 5 5 5 5 5 5 4 4 4 6 7 8 9 10 10 12 13 12 11 11 11 10 8 8 7 7 7 8 8 9 10 9 7 8 10 9 9 8 8 10 8 8 9 8 7 9 8 6 6 5 5 6 7 6 10 20 25 24 21 22 25 24 22 23 21 21 20 18 18 17 18 19 18
4 4 4 4 4 4 4 4 5 6 6 7 6 6 6 5 5 5 5 4 4 5 7 10 12 12 12 13 11 10 10 10 9 8 8 8 7 7 7 7 8 8 9 9 12 13 9 6 8 8 7 7 6 7 8 6 7 7 6 7 7 5 4 4 4 4 5 5 4 8 19 26 24 23 26 26 24 23 23 21 20 19 18 17 17 17 17 18
4 4 4 4 5 5 6 6 7 8 9 8 7 7 6 5 5 5 5 5 7 9 13 15 14 13 12 11 9 9 9 8 9 9 9 8 8 8 8 8 8 9 10 11 14 15 10 6 6 6 5 5 4 4 5 4 5 3 5 7 3 2 3 2 3 4 5 6 4 4 15 26 23 22 26 25 23 22 21 20 18 18 18 18 18 17 17 18
4 4 4 5 6 7 8 9 10 10 10 8 7 6 5 5 6 7 9 11 13 15 14 13 12 10 9 9 9 9 9 9 9 8 8 8 8 8 8 9 8 9 10 11 16 15 10 6 5 5 4 3 3 3 3 4 3 2 4 5 2 2 3 2 3 4 5 6 5 4 12 24 20 16 22 23 21 21 20 18 16 17 18 18 20 19 19 18
5 5 6 7 8 9 11 11 11 10 9 7 6 6 7 8 10 13 15 16 16 14 12 11 10 9 8 8 8 9 9 9 9 8 7 6 6 7 7 8 8 8 9 11 14 13 8 5 5 4 3 3 3 2 3 3 3 2 3 3 2 3 3 3 4 4 7 7 8 7 11 20 19 15 19 21 20 20 20 19 17 17 18 19 20 21 22 23
6 7 8 10 11 12 12 11 10 9 8 6 7 9 12 14 15 15 16 15 12 11 11 10 9 8 8 8 8 8 7 7 6 6 6 6 6 5 6 8 6 6 9 10 11 9 5 5 4 3 3 3 2 3 3 3 3 4 4 3 4 4 4 5 5 6 8 8 9 10 12 18 19 19 19 19 19 19 19 20 19 19 19 19 21 22 23 26
8 10 11 12 12 12 12 11 9 8 8 9 12 16 18 17 15 13 12 11 10 10 10 10 10 9 7 7 7 6 6 6 5 4 5 5 5 5 5 6 4 5 7 7 8 7 4 4 3 3 3 2 3 3 3 5 5 5 5 5 6 6 7 7 7 8 10 10 9 11 15 16 16 20 21 19 18 17 19 20 19 19 20 21 23 24 25 26
12 13 14 14 14 13 12 11 10 11 14 17 20 20 19 15 12 11 10 10 11 10 10 10 10 10 8 6 5 4 5 5 4 3 4 4 4 4 5 4 3 4 5 6 7 5 4 3 2 3 3 3 5 4 6 8 7 7 7 7 8 9 9 9 9 9 11 11 10 12 17 16 15 19 22 21 21 20 19 19 18 18 21 23 25 27 28 29
17 18 18 18 16 14 13 13 16 19 21 20 19 17 14 11 10 10 10 10 10 9 10 10 10 11 10 7 4 4 4 5 4 4 4 4 4 4 4 4 3 3 4 4 5 5 4 3 3 4 5 6 6 6 7 8 8 9 8 9 12 13 12 11 11 11 12 12 12 14 16 14 14 18 20 21 23 24 23 23 24 24 24 24 26 28 30 33
22 22 21 19 17 16 16 19 21 21 19 15 13 11 11 10 10 9 8 7 5 6 7 9 11 13 11 6 4 3 4 4 4 4 4 3 3 4 3 3 3 4 4 4 4 5 4 4 6 8 10 10 9 9 9 8 10 9 9 11 13 15 13 12 13 12 13 13 12 19 20 15 14 17 19 20 21 22 24 27 27 24 23 23 24 27 30 35
24 22 21 20 19 19 20 21 20 17 13 11 11 11 10 10 8 7 6 5 5 6 6 6 9 11 8 4 3 3 4 5 4 3 3 3 3 4 4 5 5 5 5 4 4 5 4 6 10 13 14 13 12 11 10 10 11 9 11 13 14 16 14 13 14 12 13 14 13 22 24 18 17 18 18 18 17 19 21 23 22 19 21 23 26 28 30 35
23 22 21 21 20 19 19 17 15 12 11 12 11 9 8 7 6 6 6 6 7 7 7 6 8 9 7 4 3 3 4 5 4 4 3 3 4 4 5 6 6 7 7 5 5 5 6 9 13 15 15 15 14 13 12 12 13 13 14 15 16 16 14 12 11 11 14 14 14 22 23 19 20 19 18 18 17 20 21 21 21 20 22 26 28 30 30 33
22 22 21 20 17 15 14 13 12 12 12 11 10 10 9 7 6 6 5 6 6 6 6 5 6 8 8 6 4 3 4 4 4 4 4 5 5 5 6 6 6 9 8 7 7 8 9 12 14 15 16 16 14 14 13 12 13 15 16 16 17 16 16 13 8 10 13 12 17 22 19 19 22 20 18 20 20 20 23 26 28 25 26 30 33 34 35 35
21 20 19 16 15 14 12 12 12 13 12 10 12 16 15 13 11 7 5 6 6 6 6 6 5 5 6 7 7 5 4 4 5 5 6 6 6 6 7 7 7 8 8 9 9 10 11 12 14 15 16 15 15 14 11 11 12 14 15 16 17 16 15 11 8 9 8 14 23 21 20 20 20 22 20 20 21 21 24 29 30 28 28 30 33 36 40 42
18 17 16 14 14 13 12 13 13 12 11 12 17 18 17 17 15 11 7 5 6 6 6 7 6 5 5 6 8 9 6 5 6 7 7 7 7 8 8 8 9 9 10 11 11 12 13 13 14 16 15 14 14 11 10 10 11 13 13 14 16 13 9 8 10 10 7 18 24 22 36 34 15 18 22 18 21 23 25 26 24 27 28 29 32 34 37 40
16 15 14 14 13 13 13 13 12 12 12 13 17 16 15 16 16 17 12 6 6 7 6 6 6 6 6 5 7 9 8 7 7 8 9 9 8 9 10 10 11 11 11 12 13 14 14 15 16 15 13 13 11 10 10 10 10 12 11 12 13 8 8 8 8 11 14 21 18 17 40 40 18 19 23 20 23 24 24 25 26 30 32 34 37 38 40 41
15 15 15 14 14 14 14 13 12 13 12 14 15 15 16 14 14 19 15 9 8 8 7 7 7 7 7 7 7 7 8 8 8 9 9 9 9 10 10 10 12 12 13 13 14 15 15 15 15 13 10 9 9 10 9 9 10 10 10 13 11 7 10 9 7 13 16 17 15 14 31 38 28 27 27 25 26 25 26 28 29 32 35 39 45 50 55 56
16 16 16 15 15 14 13 13 13 13 13 14 15 15 15 11 10 13 13 12 11 9 8 8 8 8 8 9 8 8 9 9 8 9 9 9 10 9 9 10 12 13 13 13 14 15 14 14 13 12 9 8 10 11 9 9 10 9 12 14 10 9 10 9 10 13 14 17 17 17 29 40 32 24 26 27 26 27 28 28 30 34 40 49 58 65 68 69
16 16 15 15 14 13 13 13 13 13 13 13 15 15 14 12 10 9 9 13 11 8 9 9 8 9 9 9 9 9 10 9 9 10 9 9 9 9 10 10 11 12 13 13 14 15 14 13 13 12 10 8 10 11 8 9 9 10 14 12 9 13 11 10 15 14 15 22 19 17 29 39 34 23 24 27 26 28 29 31 37 43 51 61 69 73 74 72
15 15 14 14 14 13 14 14 13 14 14 14 16 15 14 15 12 10 12 14 11 8 9 9 9 9 9 9 9 9 9 9 10 10 10 9 10 10 10 10 11 11 11 11 12 13 13 12 12 13 12 9 8 10 9 8 10 12 14 11 10 13 12 15 19 14 18 25 20 17 23 35 40 30 24 28 31 33 36 38 43 51 62 72 77 77 74 69
15 14 14 13 13 13 13 13 13 13 14 14 14 13 13 13 10 12 17 16 11 9 8 9 9 9 9 8 8 9 9 9 9 9 10 9 9 10 10 11 12 11 10 9 9 12 13 12 13 13 10 8 7 8 8 8 12 14 15 15 14 13 14 18 20 19 26 28 19 19 25 37 46 37 29 34 36 39 42 45 52 62 72 79 80 75 66 62
14 13 13 13 12 12 10 10 10 10 11 11 11 12 11 9 9 14 18 15 11 10 8 9 9 8 9 9 9 9 8 9 9 9 10 10 10 11 12 15 15 15 15 12 8 8 11 12 13 12 8 7 8 7 7 10 14 16 18 22 27 31 32 31 32 34 35 29 22 28 39 46 47 39 37 41 44 47 51 58 69 77 82 82 76 67 58 56
10 10 10 10 9 8 7 7 7 6 7 8 9 10 8 7 11 13 13 11 10 10 9 10 9 9 9 8 8 9 8 9 9 9 11 11 11 12 14 17 17 17 17 16 11 6 10 12 11 10 8 7 8 9 10 12 16 20 24 30 36 48 57 56 52 49 42 33 28 37 49 49 40 36 43 48 50 55 62 75 86 87 84 77 67 59 53 53
5 5 6 6 5 5 4 4 5 4 5 5 6 6 4 7 10 10 10 9 10 11 10 9 9 9 8 8 8 8 8 8 8 9 10 12 13 13 15 17 17 17 15 17 15 10 15 18 12 10 10 9 10 11 14 16 17 21 28 31 33 45 65 70 63 54 48 47 44 45 51 46 35 38 47 48 49 59 74 86 90 85 77 71 61 51 47 50
4 4 4 4 4 4 4 4 4 4 4 5 5 4 5 9 11 10 10 9 10 11 10 9 9 8 8 7 8 8 8 9 8 10 10 12 14 14 16 18 18 17 14 17 20 16 16 16 12 12 10 10 12 11 15 17 15 21 30 32 34 43 56 61 58 51 54 68 66 53 47 41 37 42 45 47 57 74 87 88 82 78 74 68 56 46 43 46
4 4 4 4 4 4 4 4 4 5 5 5 5 5 7 10 10 10 11 10 9 9 9 9 8 8 7 7 7 7 8 9 9 10 11 14 17 16 18 19 18 17 14 17 21 21 19 13 12 14 9 10 14 13 16 16 15 27 35 35 37 45 53 61 62 55 61 78 70 49 45 44 44 49 51 60 75 82 84 81 76 75 71 60 50 46 45 40
4 4 4 4 4 4 4 4 4 5 5 5 5 6 8 9 9 10 10 9 9 8 8 8 8 8 7 6 6 6 7 8 10 12 13 16 18 18 19 19 19 17 14 16 18 20 22 17 12 13 9 10 14 13 16 17 19 31 39 37 36 40 52 66 74 71 75 83 66 47 51 53 52 58 64 73 79 77 77 76 74 71 61 51 49 50 46 37
4 5 5 5 5 5 5 5 5 5 5 5 5 7 9 9 9 10 9 9 9 8 8 7 7 7 6 6 6 6 8 9 11 14 16 18 20 20 20 19 19 16 13 15 15 14 20 21 15 10 9 10 11 13 15 16 24 34 39 41 44 51 61 70 78 84 88 89 73 55 55 55 53 58 66 72 75 79 80 76 73 67 56 55 57 52 43 35
5 5 6 6 6 6 6 5 5 5 5 5 6 8 9 9 9 9 9 8 8 7 7 6 6 6 6 6 6 7 9 10 13 18 18 19 21 21 21 19 18 15 12 13 13 10 17 24 17 8 8 10 9 11 12 15 26 33 35 42 50 60 72 75 78 83 86 89 86 77 68 57 52 58 67 74 79 82 80 74 71 65 58 61 61 52 42 34
5 5 6 7 7 6 6 6 6 6 5 5 7 8 9 9 9 8 8 8 7 7 6 6 6 6 5 6 7 9 11 11 14 19 20 20 22 22 21 19 16 13 11 12 12 11 15 21 18 9 7 9 10 13 16 23 34 38 41 48 53 61 73 78 77 76 81 90 94 95 84 62 58 67 70 74 80 79 74 71 68 64 62 63 56 46 37 32
6 6 6 7 7 6 6 7 6 5 6 7 8 8 9 9 8 8 8 7 7 6 5 5 6 6 6 7 9 12 14 15 16 19 20 20 21 22 21 19 16 12 11 12 12 12 14 18 17 12 9 9 11 15 18 27 39 45 51 57 64 75 83 87 85 79 83 93 94 99 96 77 70 71 63 67 77 75 68 68 68 66 64 58 47 38 32 31
6 6 6 7 7 7 7 7 6 6 7 8 8 8 8 8 7 7 7 7 7 6 5 6 6 6 7 8 12 16 17 17 18 19 19 20 20 20 19 19 17 11 11 13 11 12 15 16 16 15 13 13 14 16 23 34 44 53 61 68 77 86 89 94 98 91 90 93 88 93 95 77 65 63 62 70 78 69 61 65 71 67 57 48 40 33 30 31
6 6 7 7 7 7 7 7 7 7 7 8 8 8 7 7 7 7 7 6 6 5 5 5 6 7 8 10 16 18 17 17 18 18 18 19 19 17 17 19 18 12 11 13 11 12 16 18 17 13 10 9 10 14 22 32 38 46 56 63 71 81 88 95 98 96 100 96 87 94 92 69 56 61 69 77 76 63 58 67 72 61 48 41 36 32 31 31
6 6 7 7 7 7 7 7 8 7 7 8 7 7 7 7 6 6 6 6 5 5 5 6 7 8 9 14 18 18 16 16 16 17 17 17 17 16 16 19 18 14 11 13 12 11 17 23 22 21 24 23 18 17 21 24 28 36 44 51 59 71 83 88 87 94 100 88 82 98 97 69 57 67 77 81 72 61 65 72 66 53 44 41 37 35 35 38
6 6 7 7 7 7 6 7 8 7 8 8 7 7 7 6 6 6 6 6 6 5 6 7 8 9 13 17 18 17 16 15 14 15 15 16 16 14 15 18 18 14 11 13 12 11 20 29 26 30 45 50 40 32 35 42 45 44 47 56 63 69 80 88 92 98 98 87 88 101 95 74 68 77 82 76 68 69 76 70 55 48 45 41 41 41 42 51
6 6 7 7 7 7 7 8 8 8 8 8 7 7 6 5 7 7 6 7 6 6 7 7 9 13 16 18 17 16 15 13 13 12 12 15 15 13 16 18 18 15 12 14 12 10 22 32 25 21 31 39 35 31 41 57 58 48 49 58 61 70 88 99 100 100 99 98 95 88 86 89 89 83 75 72 77 84 79 65 55 54 48 43 46 48 51 62
6 7 7 7 7 8 8 8 8 7 7 8 7 7 5 5 6 7 7 7 7 7 7 8 12 16 19 18 16 15 14 12 11 10 11 13 13 13 16 19 19 17 12 13 13 11 18 26 21 15 17 22 26 32 43 51 49 43 47 52 54 71 94 101 100 100 100 102 95 81 88 101 92 75 73 83 89 83 70 63 63 63 56 55 58 58 62 71
6 7 7 7 8 8 8 8 8 8 7 7 8 7 5 5 5 7 7 7 7 7 8 11 16 19 19 18 16 15 13 11 9 9 10 12 11 12 15 18 20 17 13 13 12 11 16 20 17 15 16 18 28 39 40 37 37 37 39 44 54 76 96 101 100 101 100 102 100 92 91 88 75 72 82 88 80 68 64 64 61 60 60 63 65 65 71 80
7 8 8 8 9 9 9 8 8 8 8 8 8 8 6 5 6 7 8 8 8 7 9 15 19 20 20 18 16 14 12 10 9 8 10 12 11 11 15 21 22 18 14 13 11 12 15 16 16 19 18 19 29 36 30 27 31 31 38 54 68 83 98 101 99 99 100 98 91 82 75 66 67 81 87 76 62 59 64 61 57 59 60 62 68 72 80 90
8 8 9 9 10 10 10 10 9 8 8 8 8 8 6 6 7 8 8 9 8 8 13 18 20 20 19 17 15 13 11 10 9 9 10 12 11 11 17 23 23 18 15 12 12 14 15 15 18 22 22 26 30 26 20 24 29 34 49 65 72 83 97 103 101 98 91 79 65 62 68 70 78 87 79 62 55 61 71 72 69 68 65 71 81 85 91 99
9 9 9 10 10 11 11 11 11 9 9 9 8 8 7 7 8 9 9 9 9 11 16 20 20 20 19 17 15 12 10 10 9 8 10 12 11 12 17 24 24 19 14 12 13 14 15 16 18 21 25 28 28 22 17 20 29 44 63 68 70 86 98 97 93 82 69 65 60 63 78 88 89 81 66 57 56 62 76 83 79 75 73 83 96 99 99 102
10 10 10 10 11 11 11 12 12 11 11 11 9 8 9 8 10 10 9 10 12 15 19 20 20 20 18 17 14 12 10 9 9 9 10 12 13 12 17 24 24 19 15 14 15 16 16 18 19 26 32 25 20 22 22 23 30 44 63 73 81 94 93 78 65 49 42 55 65 72 84 89 81 70 64 60 53 58 78 86 81 81 84 88 96 101 101 101
Wind_Speed
10 9 9 8 7 7 6 5 3 2 0 1 1 2 3 4 5 6 7 7 9 9 9 9 9 9 10 10 10 10 10 10 10 9 8 8 8 7 7 8 8 8 8 8 8 8 8 7 7 7 8 8 9 9 10 11 12 13 14 16 17 18 19 18 19 21 24 25 23 22 23 25 24 22 24 23 22 21 18 16 18 19 18 19 22 25 26 26
9 9 9 8 8 8 7 5 4 2 1 2 2 2 3 5 6 6 7 7 8 9 9 9 10 10 11 11 10 9 8 8 7 7 7 7 7 7 7 7 7 7 7 7 8 8 9 9 8 8 9 9 10 11 11 13 13 14 15 17 18 18 18 18 19 21 23 25 23 22 22 23 22 22 23 23 20 20 19 18 19 19 19 19 21 25 27 27
9 9 9 8 8 7 7 5 4 2 2 4 3 1 4 6 7 6 6 6 7 8 9 9 10 10 10 9 9 8 7 7 6 6 6 6 7 6 6 7 7 7 7 7 8 8 9 9 10 10 10 11 12 12 13 14 15 15 16 17 18 18 18 17 18 20 22 24 23 21 21 20 21 22 22 23 21 20 20 21 22 23 22 21 21 23 24 24
9 9 9 8 7 7 6 5 3 2 1 5 5 2 3 6 7 5 6 6 7 8 9 9 10 10 9 8 8 7 6 5 4 4 5 6 6 6 7 8 8 8 8 9 9 9 9 9 10 11 11 12 13 13 14 15 15 16 16 16 17 18 18 16 18 20 20 22 21 20 20 19 20 21 20 22 23 21 22 22 23 23 22 21 18 17 18 19
9 9 8 7 6 5 5 4 4 5 4 6 6 4 3 5 5 5 6 6 7 8 9 9 9 9 8 7 7 6 5 5 5 5 6 6 7 7 8 9 9 9 9 10 10 10 10 10 10 11 12 12 13 14 15 15 16 16 15 15 17 18 17 16 18 19 18 19 19 19 19 19 20 20 20 20 21 21 21 20 19 18 19 19 17 16 15 15
8 8 7 6 6 5 5 5 5 5 5 5 5 3 3 3 3 4 6 6 7 8 8 9 8 7 7 6 6 5 5 5 6 6 6 7 8 8 9 9 10 10 10 10 10 10 11 11 11 12 12 13 13 14 14 14 14 14 13 13 14 16 16 15 15 16 17 18 19 19 19 20 21 19 17 16 17 17 16 16 15 16 16 15 14 13 12 11
8 7 7 6 6 5 5 4 4 3 3 3 2 2 2 2 3 4 5 6 7 7 7 7 6 6 6 5 6 5 5 5 5 6 7 8 8 8 9 9 10 10 11 11 11 11 12 12 12 11 11 11 12 12 12 12 12 12 11 11 12 14 14 14 14 15 17 18 19 19 19 21 20 15 12 14 14 13 12 12 12 12 11 10 10 11 12 13
8 7 7 6 6 6 5 4 3 2 2 2 2 2 1 2 3 4 4 5 5 6 5 6 6 6 6 6 6 5 6 6 6 6 6 7 8 8 9 9 10 11 11 11 11 11 11 11 11 11 10 10 10 11 12 11 11 10 9 11 12 12 13 13 14 15 16 18 19 18 19 19 14 10 10 13 11 9 8 7 7 7 7 9 11 13 15 15
8 7 6 6 6 5 4 3 2 2 2 2 1 1 1 2 3 3 4 4 4 4 5 6 6 7 6 6 5 6 7 7 7 7 7 8 9 10 11 11 11 11 10 10 10 10 11 12 12 11 10 10 10 11 10 8 10 9 10 14 12 11 13 14 14 16 17 17 18 18 15 12 9 6 8 10 5 4 5 6 7 9 11 12 14 15 16 16
8 6 6 5 4 4 3 3 3 2 2 1 1 0 1 1 2 2 3 3 4 5 6 7 7 7 6 7 7 7 9 8 9 9 10 10 10 11 10 10 10 10 11 11 11 12 13 12 11 10 9 9 10 11 8 8 12 11 12 15 11 11 14 16 17 17 16 16 19 17 10 9 7 5 7 6 4 5 7 10 11 12 13 14 14 15 15 16
7 6 5 4 4 4 4 4 3 2 2 2 1 1 1 1 2 3 4 5 6 6 7 8 8 8 8 9 9 9 9 10 11 11 11 10 10 11 11 11 11 12 12 11 12 12 13 13 11 10 10 11 13 11 9 12 14 13 15 14 11 12 13 14 15 14 13 16 20 15 10 10 7 5 6 4 8 9 12 13 13 12 11 10 11 12 13 13
6 5 4 4 4 4 4 4 4 3 3 2 2 2 3 3 4 4 5 6 6 7 8 9 9 10 10 8 9 11 12 12 12 12 12 11 11 12 12 12 12 12 11 11 11 11 14 15 13 13 14 14 15 12 11 15 15 14 15 11 9 11 13 13 14 15 14 17 22 14 10 13 12 8 6 6 9 11 13 15 14 13 10 9 10 11 11 10
6 6 5 5 4 4 4 5 4 4 3 4 4 4 4 5 5 5 5 6 7 8 9 10 10 12 10 9 12 14 13 14 14 13 13 12 12 12 13 12 12 12 11 11 11 12 16 17 15 17 17 16 16 14 14 15 14 15 14 10 10 10 13 16 16 17 14 16 24 16 11 14 13 10 7 9 12 12 14 16 16 13 12 10 10 10 10 9
7 6 6 5 5 4 5 5 5 5 5 5 5 5 5 5 5 6 7 8 9 10 11 11 11 11 11 12 14 15 15 15 15 14 13 13 13 12 12 12 14 15 14 13 13 15 17 17 17 17 17 18 18 16 15 13 14 15 12 10 15 16 16 18 18 17 14 18 24 17 12 11 13 13 10 11 13 14 15 17 18 16 14 12 10 10 10 10
8 7 6 5 5 5 5 6 5 6 6 5 5 5 5 6 7 7 8 10 11 11 11 11 10 11 13 15 16 16 16 15 14 13 13 14 15 14 13 14 17 18 16 15 15 16 17 17 16 15 17 16 14 15 13 11 13 15 14 14 18 21 18 18 20 18 19 24 25 18 11 6 12 14 15 15 16 16 16 17 18 18 17 16 13 11 9 8
8 7 7 6 6 6 6 6 5 5 5 5 5 6 7 9 10 10 11 11 11 12 11 11 11 11 13 15 16 14 12 13 14 14 15 16 17 17 16 16 18 18 16 15 14 15 16 15 14 14 16 13 11 12 10 10 16 17 18 18 19 23 22 21 20 19 24 28 25 19 11 5 13 14 15 18 18 19 18 18 18 19 19 19 18 15 12 9
9 8 8 7 7 6 6 5 5 5 5 6 7 9 10 11 12 13 13 12 12 13 12 11 11 12 14 14 13 13 13 15 17 17 16 17 18 17 17 17 18 16 15 14 14 14 14 13 14 12 12 13 14 15 13 15 21 21 21 21 21 24 26 26 23 22 27 28 26 21 10 7 17 15 16 18 19 21 20 19 19 20 20 20 20 18 16 14
10 9 9 8 7 7 6 6 7 7 8 9 10 11 11 12 13 12 12 12 12 12 13 13 11 12 16 16 16 17 17 19 20 19 17 17 16 15 16 16 14 13 14 13 11 11 12 12 11 6 8 15 19 21 21 20 22 23 22 21 23 25 26 28 26 26 32 30 26 21 9 9 17 17 17 18 20 21 20 21 21 21 22 22 23 22 20 18
11 11 10 9 8 8 8 9 10 11 12 12 12 12 13 13 13 13 12 11 11 13 14 14 13 14 17 20 21 20 19 19 20 18 17 16 14 14 14 13 12 12 12 12 8 9 11 10 8 9 15 22 24 24 23 20 19 21 21 19 23 28 28 27 24 28 34 33 29 20 9 12 16 18 20 20 20 20 20 20 20 20 22 23 24 24 23 22
13 12 11 10 9 10 10 11 13 14 14 14 14 14 15 14 14 15 14 13 17 20 18 15 15 16 18 20 19 18 18 18 17 15 14 14 13 13 13 12 11 9 9 11 10 10 11 12 16 22 24 24 23 21 20 20 19 22 21 17 23 31 32 27 24 30 33 34 31 17 9 15 18 19 21 21 21 20 21 21 21 23 24 26 26 26 26 24
13 12 12 11 11 11 12 14 15 16 17 17 16 16 16 14 15 17 17 19 22 23 21 19 17 15 17 18 17 17 16 14 15 13 12 13 13 12 12 12 9 8 10 13 13 11 11 16 24 26 24 23 23 21 20 20 20 22 19 19 25 30 33 28 27 34 33 33 29 13 10 19 20 21 21 20 20 21 22 23 23 26 28 28 29 28 27 25
14 13 13 13 14 15 16 18 18 18 18 19 18 17 18 17 18 19 20 23 24 23 22 20 17 14 16 18 18 18 12 8 11 12 12 14 13 12 12 11 10 11 12 12 13 13 15 22 26 25 25 25 23 21 20 21 22 21 20 23 27 29 33 33 34 36 32 32 26 12 17 23 19 21 18 18 20 20 21 22 24 27 30 31 30 30 30 28
15 15 15 16 17 18 19 19 19 19 19 20 19 19 19 19 20 20 21 22 22 22 22 19 16 12 13 15 18 18 11 8 11 12 13 14 13 13 14 13 13 13 10 11 16 18 20 21 23 26 26 25 23 22 21 22 23 21 23 27 27 28 32 37 41 38 34 31 19 13 24 25 19 20 17 16 18 19 20 21 24 27 31 32 31 30 30 30
17 17 18 18 18 18 19 19 19 19 20 20 19 17 17 17 17 18 20 22 21 21 20 18 17 14 12 13 15 18 16 13 14 15 15 16 15 16 17 16 17 15 11 12 17 22 21 18 21 25 25 25 24 24 25 27 25 22 24 27 26 28 31 36 39 37 37 27 11 15 24 21 19 20 19 17 18 20 22 22 24 28 31 33 32 31 29 29
18 18 18 17 17 17 17 17 18 18 18 17 13 13 15 14 12 14 17 18 19 19 17 16 17 17 16 13 11 12 15 17 18 19 18 18 18 19 20 20 19 19 15 11 14 20 21 18 20 23 25 24 24 27 30 31 29 24 26 28 26 31 35 35 33 34 36 22 13 21 15 10 17 20 22 22 23 26 27 29 32 33 35 36 35 35 33 33
18 18 17 16 16 15 15 15 16 16 14 11 7 12 15 12 7 7 10 13 18 19 18 16 17 18 17 17 13 8 11 19 23 22 20 19 20 20 21 23 22 21 18 11 12 18 20 19 19 23 26 25 26 29 31 32 30 27 29 29 28 35 36 33 32 31 27 20 23 25 10 8 19 21 22 26 28 31 33 35 38 36 35 35 34 34 35 36
17 16 16 15 14 14 13 13 13 11 8 5 9 12 12 10 6 3 3 6 14 19 18 17 17 18 18 19 18 12 13 18 21 22 21 21 21 20 22 24 23 23 20 14 12 16 20 20 19 23 27 28 30 31 31 31 28 28 30 28 32 37 32 31 30 23 21 25 27 20 9 11 20 24 23 27 30 33 36 37 37 36 35 34 33 32 34 35
15 14 14 13 13 12 11 10 9 6 4 3 9 9 6 6 6 5 4 4 9 16 17 16 16 17 18 19 19 19 18 17 19 23 23 21 21 19 21 24 24 23 21 17 14 16 20 21 20 25 29 30 30 28 29 29 27 30 28 28 36 35 32 31 21 17 23 26 21 15 9 9 20 30 27 29 35 35 38 39 38 39 37 36 35 35 37 40
12 11 11 10 10 10 8 6 4 2 1 3 6 5 4 4 4 5 7 6 7 13 15 15 14 15 17 19 19 20 20 19 21 23 21 21 21 19 20 23 24 23 22 20 16 15 19 22 22 25 28 30 28 25 28 29 29 30 26 32 37 30 34 27 12 20 26 16 11 14 12 7 19 38 37 33 37 36 37 39 38 39 36 35 36 39 44 48
9 8 8 7 7 6 4 2 1 1 1 2 2 2 2 2 2 5 6 5 7 11 13 15 15 15 15 17 19 19 20 20 21 19 19 21 21 19 19 22 23 22 20 19 17 14 16 21 22 23 27 31 28 26 28 29 30 28 28 38 38 34 37 19 9 25 19 8 13 19 21 14 14 32 39 34 34 35 38 40 39 37 34 35 39 44 51 55
7 6 6 5 5 3 2 2 2 1 1 0 1 1 1 2 3 6 5 3 6 8 12 16 17 17 16 18 20 20 20 21 20 19 19 21 21 21 22 25 26 23 21 21 20 15 12 18 22 23 28 32 31 29 29 28 28 27 29 38 37 38 38 18 16 23 7 8 24 27 31 21 12 24 34 32 34 36 38 39 36 35 35 38 44 52 58 60
8 8 7 6 6 6 6 7 6 5 4 3 3 3 6 7 9 10 5 1 3 6 11 16 18 19 19 20 21 21 21 22 22 22 23 24 27 29 31 33 32 27 23 24 26 20 14 16 22 24 29 33 32 34 34 31 27 25 30 35 27 21 22 14 13 12 3 16 31 31 31 21 20 28 31 29 33 35 34 32 30 33 37 43 51 58 62 61
12 11 10 10 9 9 9 9 7 7 6 4 5 5 8 10 9 9 7 4 4 7 11 14 17 19 20 21 22 22 22 23 23 23 23 23 27 31 31 31 31 27 23 22 27 28 20 17 22 26 29 31 31 31 34 33 28 26 28 29 20 9 6 7 6 5 8 24 38 39 29 22 25 29 28 31 35 34 29 25 28 37 44 51 58 62 64 63
15 14 13 12 11 11 11 10 9 8 7 7 7 7 10 13 9 8 9 6 5 8 12 14 16 19 20 22 23 22 23 24 23 22 22 22 25 29 29 28 29 27 25 21 22 27 21 14 19 26 29 28 26 25 26 28 25 24 23 22 22 14 3 4 6 5 10 23 40 39 22 18 27 31 35 41 40 32 26 26 35 44 51 58 64 65 64 63
16 14 13 12 11 12 11 10 10 8 8 9 7 7 12 12 9 10 11 9 8 8 10 13 15 17 19 21 22 23 22 23 22 21 23 24 25 29 29 28 28 27 27 21 18 21 20 15 14 21 28 26 23 24 25 25 23 22 21 22 28 22 7 10 13 17 19 18 24 26 22 27 34 37 42 40 32 27 27 35 44 49 55 62 66 68 65 63
16 14 13 11 11 10 9 9 9 8 9 7 5 13 18 14 11 12 13 14 14 11 9 11 15 17 19 21 22 22 21 21 21 21 23 24 22 25 27 26 26 27 27 24 19 19 20 18 13 18 28 25 21 24 25 26 25 20 20 25 30 22 10 11 16 21 19 10 13 20 28 36 35 33 33 26 23 29 36 43 47 51 58 65 68 68 65 64
16 15 14 12 11 10 10 9 6 8 11 5 6 18 21 17 16 16 15 16 17 16 14 14 16 19 21 21 22 22 20 21 21 20 23 22 18 21 24 23 23 25 26 24 23 22 22 20 16 23 31 26 22 25 23 25 26 19 20 28 31 21 11 9 9 11 9 5 12 21 30 38 31 21 21 22 28 37 42 45 51 58 64 67 67 66 65 67
16 15 14 13 12 12 12 10 7 10 9 4 11 22 20 17 18 17 16 16 16 17 18 18 18 20 21 21 22 22 19 20 22 20 21 20 16 18 22 22 21 23 25 24 24 27 25 18 18 29 33 27 25 28 27 28 26 19 21 29 27 15 10 13 9 6 7 4 9 19 29 33 26 19 25 32 37 40 43 50 58 64 65 64 65 65 66 70
14 14 13 14 13 12 13 13 13 12 5 5 17 21 18 19 19 17 16 16 16 17 19 19 18 19 20 21 21 21 19 18 21 20 19 19 16 16 19 20 20 23 25 24 25 29 24 15 18 31 34 29 31 34 32 31 27 25 29 33 28 14 11 18 13 7 9 8 8 14 20 21 21 27 35 37 37 40 49 59 64 63 62 61 63 66 69 73
12 12 14 15 12 12 16 16 12 6 3 11 20 19 18 19 17 17 16 15 16 17 17 19 19 18 19 20 20 21 18 16 19 20 18 19 16 15 18 18 19 23 24 24 26 28 23 15 22 35 37 33 33 33 31 27 25 30 35 35 32 24 19 20 15 10 9 7 6 7 12 23 30 32 35 35 35 45 58 64 62 60 60 61 63 68 72 73
11 11 14 14 12 17 19 12 8 7 11 18 21 19 18 17 15 16 14 15 16 16 17 18 19 18 18 19 19 21 18 14 17 19 18 18 17 16 17 16 19 24 24 24 27 27 22 19 26 36 37 34 33 30 27 24 24 30 35 32 28 26 22 15 8 12 15 12 11 8 11 30 37 32 34 37 41 56 64 61 59 58 59 63 68 73 73 70
10 12 15 13 15 19 14 8 10 16 18 20 19 18 17 15 14 14 13 14 15 15 16 17 18 18 18 18 19 20 19 14 15 18 17 17 17 16 17 16 18 24 25 24 28 28 23 22 29 33 30 30 32 29 25 23 26 32 32 29 27 25 22 12 6 17 26 22 22 17 14 31 38 32 37 46 53 64 64 57 56 58 62 69 74 74 70 65
10 14 16 14 17 17 10 11 16 17 17 19 17 16 15 13 13 13 13 14 15 16 16 16 17 18 17 19 19 20 19 14 13 17 17 16 16 17 16 15 16 23 25 24 27 28 21 20 31 35 33 34 35 31 27 26 31 36 36 35 34 30 28 22 17 22 26 24 24 14 12 32 43 40 47 56 62 65 59 54 55 60 69 75 74 71 66 62
11 15 16 16 17 14 11 16 18 16 17 18 15 14 13 13 13 13 13 14 15 15 15 16 17 17 18 20 20 20 19 16 14 16 16 16 16 17 16 14 15 21 25 25 27 28 20 16 25 28 26 30 32 29 30 34 36 36 37 38 37 34 31 27 25 23 21 26 28 11 13 42 56 54 59 63 63 61 56 54 59 67 75 76 71 68 64 59
11 15 17 18 16 11 12 18 17 15 16 15 14 14 13 12 13 13 13 14 15 15 15 16 17 17 18 20 21 20 19 17 15 15 16 16 15 16 16 14 14 20 25 25 27 29 20 15 21 19 9 10 15 17 24 32 34 34 37 36 33 32 29 24 24 20 19 30 36 22 27 54 66 62 64 65 60 57 55 60 68 74 75 71 68 66 62 56
12 15 16 17 15 12 15 18 16 15 15 13 13 14 12 13 13 13 13 14 15 16 15 16 17 18 18 20 20 19 19 17 15 14 15 14 15 17 16 13 13 20 25 25 28 30 21 15 23 25 17 15 18 19 20 23 29 35 36 32 29 28 26 21 19 21 25 32 40 38 40 55 64 66 67 64 56 55 61 70 75 75 71 69 67 63 58 53
14 16 15 14 14 15 17 17 15 14 14 12 13 13 12 13 14 14 14 14 15 16 15 16 18 19 19 20 19 18 18 16 14 15 14 12 15 17 16 14 13 19 26 27 28 31 26 22 28 33 30 23 19 18 19 24 32 37 32 27 26 25 25 21 18 25 31 27 34 48 51 53 63 69 65 58 55 61 71 75 75 73 71 70 66 59 54 52
15 17 16 15 15 15 15 16 15 15 14 12 13 13 13 14 14 14 15 14 15 16 16 17 19 20 21 21 20 19 18 16 15 16 14 12 14 16 16 14 13 19 26 27 29 32 30 29 34 37 35 26 16 16 27 34 35 30 23 22 24 24 25 24 22 30 34 27 34 52 58 58 66 66 59 57 63 71 76 75 73 72 70 68 63 57 54 55
17 17 17 17 16 15 15 15 14 14 13 13 13 13 13 14 15 16 15 15 15 16 16 18 20 21 21 21 21 21 20 20 19 19 16 13 14 17 15 11 12 18 25 27 30 33 32 34 36 37 36 29 21 27 37 39 31 22 17 19 23 26 27 26 28 34 37 38 46 56 60 64 63 56 56 65 70 73 76 74 72 72 69 65 61 57 58 59
18 17 17 16 16 16 15 14 14 14 13 13 14 14 14 14 16 17 16 15 16 16 17 19 20 20 20 20 20 20 20 21 21 20 17 14 16 18 14 10 12 18 24 28 30 32 36 37 37 38 36 28 27 39 44 35 23 16 16 21 27 30 31 30 33 39 43 51 58 59 60 61 55 52 62 71 73 74 76 74 72 71 67 63 60 60 61 62
18 18 17 15 15 15 15 14 14 14 13 14 14 15 15 16 17 17 16 16 16 16 18 19 20 19 19 19 20 19 19 19 19 19 17 14 16 18 15 12 14 18 25 29 31 34 38 39 39 41 37 29 32 44 45 33 20 13 17 28 32 32 35 37 38 44 50 56 60 61 58 53 52 59 71 75 74 76 76 73 72 70 65 62 61 61 63 65
18 18 17 15 15 15 14 14 14 13 14 14 15 15 16 17 17 17 16 16 17 18 19 20 20 19 18 18 19 18 18 19 17 17 16 14 16 18 16 13 14 20 26 29 31 36 38 39 40 38 35 36 41 46 42 30 18 15 22 31 32 31 36 43 48 54 56 54 56 58 54 51 58 69 76 76 77 76 74 72 71 68 64 63 63 63 66 67
Wind_Direction
173 173 174 174 175 178 178 170 153 140 231 280 285 305 322 321 320 320 319 318 316 324 332 329 330 332 330 326 319 314 310 305 304 308 309 306 307 319 332 341 347 351 352 350 346 339 333 328 318 313 307 303 302 302 300 299 300 300 296 292 293 297 301 304 304 303 301 304 308 309 307 307 311 311 309 311 313 317 320 312 299 297 302 303 305 305 307 309
167 170 170 171 174 177 177 165 143 117 339 285 270 309 333 328 323 323 323 319 315 323 329 327 328 330 327 324 321 319 315 309 308 307 303 300 304 313 323 331 338 341 344 345 341 334 328 324 318 311 305 301 300 300 299 299 298 297 295 295 298 299 300 303 303 301 301 305 311 311 309 309 313 314 312 313 319 322 316 307 300 304 308 307 309 308 308 310
161 165 167 170 173 175 175 165 148 104 2 301 279 327 349 334 323 320 326 329 324 321 321 321 324 328 329 331 331 328 324 318 312 307 302 299 304 307 313 322 327 329 334 336 335 332 328 324 321 316 310 307 305 304 302 299 297 297 296 297 301 301 303 308 304 302 303 306 310 310 308 312 315 314 314 318 324 326 322 320 319 320 319 316 315 312 311 312
158 162 164 168 171 172 171 170 178 154 347 292 280 280 322 315 312 320 332 329 320 317 319 323 326 330 334 337 336 334 329 317 305 312 313 309 309 308 312 320 324 327 329 331 330 328 326 325 322 316 312 309 304 302 298 297 298 299 300 303 305 305 310 312 303 302 304 306 310 309 310 316 316 316 322 326 329 333 336 338 338 336 333 333 332 327 325 324
156 160 164 168 170 172 177 184 201 201 208 249 265 269 270 276 295 318 323 318 316 321 324 325 327 328 331 333 334 332 321 305 287 299 317 322 319 318 322 325 326 327 327 326 324 324 321 319 317 311 308 305 303 303 302 303 304 307 310 311 309 310 313 307 302 305 306 307 308 307 313 319 320 326 333 337 343 349 351 355 358 356 352 352 348 342 341 339
151 157 162 169 177 181 193 198 204 210 214 233 250 259 257 263 294 310 314 317 322 328 326 323 322 323 326 330 332 329 326 322 302 300 316 323 324 326 328 327 326 325 324 325 323 322 322 323 323 318 314 311 312 312 311 312 313 317 321 318 313 312 311 306 307 309 308 309 307 310 320 323 326 336 347 358 8 13 12 13 14 7 1 359 354 346 339 331
146 152 158 169 180 186 198 204 203 203 208 222 229 235 251 282 303 311 317 320 324 324 318 317 318 324 331 332 337 342 350 355 340 328 325 323 325 326 326 325 326 327 328 330 329 331 335 336 333 329 327 326 326 324 321 322 324 327 328 326 320 314 312 312 316 314 312 313 310 319 328 325 332 346 8 30 36 36 27 20 17 8 359 349 336 324 314 306
144 150 159 169 177 183 190 192 184 175 171 182 190 217 262 294 304 314 314 315 318 314 315 325 332 337 342 343 348 357 1 1 351 340 332 330 329 329 332 333 335 337 338 339 342 347 350 351 351 349 348 344 341 335 330 329 333 334 336 336 326 316 316 319 323 320 319 319 317 330 333 331 348 2 27 51 53 40 22 7 360 348 330 317 312 309 305 303
143 149 157 165 171 173 174 166 154 150 156 162 172 224 299 306 308 309 306 313 316 323 339 345 349 350 350 355 357 8 7 1 358 354 352 351 349 349 349 348 348 350 354 358 2 7 10 9 6 2 357 352 346 338 334 335 342 344 345 345 334 322 324 326 328 325 326 325 326 341 345 353 21 23 42 56 43 4 342 319 305 298 295 299 304 305 306 306
141 143 150 154 155 151 147 142 138 144 145 130 123 137 314 309 310 309 318 330 335 349 357 358 5 1 3 12 16 26 18 12 17 12 10 11 9 7 3 2 5 11 16 16 18 20 18 14 8 2 357 355 350 344 343 344 348 351 349 348 338 328 333 333 333 332 333 333 340 358 14 23 28 22 51 46 320 292 291 290 288 291 292 295 296 299 305 307
142 139 141 138 136 134 134 132 130 128 111 102 105 84 6 357 351 349 352 352 356 7 14 19 20 18 25 26 30 42 37 32 33 29 28 27 25 22 19 21 23 22 20 17 18 18 17 14 10 6 3 3 359 355 357 352 351 351 350 353 341 331 339 342 341 340 343 348 356 19 44 21 359 358 32 359 301 292 290 293 296 300 298 296 295 294 298 303
148 145 140 136 133 129 127 119 112 109 102 100 79 49 34 23 14 7 2 5 17 30 37 38 37 40 44 44 48 55 52 46 42 40 37 33 32 30 28 29 27 23 18 17 17 15 16 15 15 14 11 7 4 3 359 355 358 355 356 11 6 346 348 354 355 348 344 355 2 18 46 13 345 341 350 299 289 289 291 296 299 302 298 294 294 292 297 303
155 152 146 140 132 122 115 107 107 106 95 79 59 45 34 24 19 19 20 31 43 52 55 52 51 53 56 59 57 55 51 47 43 40 37 33 31 28 29 30 27 25 21 21 19 16 16 16 17 15 10 5 8 10 1 1 7 3 2 15 21 13 1 355 359 356 348 353 356 6 48 19 336 326 323 291 287 284 288 294 295 296 293 289 289 292 295 296
157 153 148 140 128 117 105 99 97 87 75 62 48 40 33 30 35 40 50 58 62 64 64 62 61 60 60 57 53 48 42 38 35 34 36 37 33 28 27 25 25 24 23 25 23 19 16 15 15 11 7 8 9 7 4 12 13 5 5 4 6 8 3 355 355 2 1 356 356 6 46 22 318 307 305 290 286 284 288 292 292 292 290 289 288 289 291 292
155 150 143 132 118 105 92 86 79 72 67 55 49 49 48 52 57 64 70 71 70 69 67 66 63 59 57 54 50 45 39 35 31 28 30 30 28 25 22 23 25 24 25 28 24 20 17 16 15 9 9 9 4 3 10 23 15 8 7 1 360 359 358 357 353 355 356 356 359 7 30 1 300 294 291 285 281 283 284 286 288 288 288 287 284 283 283 282
144 135 125 112 101 94 87 82 76 74 70 64 70 72 72 73 73 75 74 74 74 71 70 67 63 56 52 48 45 44 43 38 32 28 24 21 21 21 22 25 24 24 28 28 26 23 19 16 13 9 11 9 4 6 11 19 14 13 8 360 358 354 351 352 351 350 350 352 356 5 24 320 288 281 275 274 275 277 279 280 283 284 285 285 284 283 277 264
125 117 110 106 103 100 96 93 89 89 88 88 87 82 81 79 78 78 77 77 74 69 68 64 61 55 50 46 38 38 40 35 29 28 25 22 22 23 25 24 21 25 28 26 27 23 18 15 14 13 12 14 16 12 13 13 7 6 2 358 356 353 349 345 346 346 346 351 352 0 23 293 284 277 265 265 268 274 278 280 283 284 285 286 286 285 280 273
119 118 117 118 116 113 111 109 106 102 96 89 84 82 82 79 78 78 75 73 69 68 67 64 64 55 47 41 33 30 33 31 27 28 30 28 28 28 26 21 21 29 29 26 25 20 19 11 4 359 4 15 19 19 23 15 1 357 355 353 351 350 348 344 343 343 344 348 351 356 1 279 278 275 266 262 264 270 276 281 285 285 285 285 286 286 285 283
127 127 127 127 123 123 121 115 108 100 93 87 87 88 84 80 77 74 73 74 73 70 64 59 59 50 41 35 30 26 30 30 26 27 31 30 31 32 28 24 28 34 31 27 21 21 18 357 354 13 16 19 20 22 22 10 -0 356 350 350 350 346 347 347 343 343 343 343 347 352 333 288 284 274 263 261 262 267 275 279 281 282 282 283 285 287 289 287
132 131 129 127 122 121 117 112 106 99 97 95 93 90 85 84 82 79 80 77 68 62 57 52 51 47 42 37 31 28 29 30 29 30 33 33 34 34 34 34 37 38 34 29 31 31 11 6 32 34 27 23 19 17 12 6 2 354 348 349 350 345 343 346 344 343 343 339 342 350 321 304 298 274 257 255 260 266 273 275 280 286 288 288 288 289 290 289
129 127 123 119 115 114 114 113 109 106 104 98 92 90 87 88 84 78 74 68 60 56 52 48 48 50 46 40 36 33 27 24 29 35 37 38 38 39 42 41 38 39 36 32 36 33 10 24 40 35 26 22 17 15 11 7 0 354 354 348 348 346 340 342 344 342 342 337 337 343 316 311 294 268 256 260 268 272 275 279 288 296 298 296 294 293 293 290
125 123 120 117 115 114 116 116 113 110 105 99 95 92 88 84 79 74 70 65 60 56 52 47 46 50 49 45 43 40 35 34 40 42 43 40 36 40 45 42 39 41 40 35 35 33 28 37 40 30 23 21 17 16 13 9 1 358 1 353 351 349 341 340 342 340 339 334 332 330 322 313 281 257 259 271 277 276 280 289 296 301 303 300 298 296 294 291
121 120 118 118 117 116 118 117 115 112 108 105 101 91 81 76 73 72 69 65 61 57 54 50 48 52 53 51 49 47 49 59 50 44 45 37 31 39 43 42 43 44 42 38 37 37 39 41 34 25 21 18 16 14 10 8 7 3 2 358 352 349 344 339 338 336 333 331 327 326 326 313 273 251 260 276 281 285 292 298 301 302 303 301 301 301 297 294
118 118 118 119 119 120 121 119 119 117 116 113 103 81 65 61 64 66 65 63 59 55 50 48 49 51 53 51 49 48 46 48 45 41 40 33 33 40 40 41 43 42 44 44 39 39 42 40 29 24 20 16 14 9 6 8 9 6 1 357 349 344 342 335 333 331 329 329 323 326 325 303 270 252 254 269 277 288 296 297 298 298 298 298 298 298 298 300
115 116 118 119 120 123 124 123 125 124 123 120 98 57 39 40 53 63 66 63 54 51 48 44 45 46 46 44 41 43 40 40 43 41 37 35 39 40 38 40 40 40 44 49 44 38 39 37 30 23 17 16 13 8 8 6 4 3 357 353 346 340 337 333 332 328 328 330 326 329 325 286 285 266 255 268 277 287 295 295 296 296 294 294 293 294 297 302
112 115 117 119 123 126 127 129 131 128 128 120 64 24 22 25 44 69 70 59 43 41 41 39 41 39 39 41 35 33 37 38 42 42 36 37 41 41 40 39 39 40 42 48 47 37 34 34 28 21 17 15 11 10 10 2 359 358 352 347 343 339 336 335 333 328 325 323 324 326 307 270 299 284 268 278 284 289 292 293 295 296 297 297 297 299 302 304
111 115 117 121 125 127 129 131 129 126 126 95 17 7 14 24 50 71 69 52 28 25 30 33 39 35 35 41 35 37 48 40 41 44 38 39 41 38 39 39 39 39 37 41 47 40 33 31 23 18 16 13 10 10 6 0 356 352 347 343 341 339 339 339 336 332 325 318 324 326 287 270 293 292 289 290 290 292 293 296 299 302 305 306 307 310 311 312
113 116 120 124 127 128 131 128 122 116 111 16 353 358 14 33 53 52 68 73 14 14 23 28 36 35 35 42 37 43 53 44 42 43 37 37 38 34 35 38 40 39 35 38 46 41 30 24 20 15 14 14 12 7 0 359 355 349 346 341 341 342 344 344 341 339 331 321 327 336 314 285 294 301 303 298 298 299 300 303 306 308 311 312 315 319 321 322
116 122 126 130 132 133 133 128 123 114 354 322 341 4 31 37 41 54 72 75 20 19 27 28 37 40 41 47 43 45 49 43 45 44 33 31 31 30 34 37 40 40 36 35 38 38 26 19 17 13 12 11 9 4 358 358 354 350 346 341 344 348 349 352 357 342 334 313 317 338 332 314 300 304 304 302 303 303 305 307 308 309 310 313 319 323 325 326
122 128 130 137 143 144 151 165 190 224 288 311 327 328 349 18 45 67 71 59 34 33 36 38 45 50 49 47 45 44 43 41 42 37 28 28 25 23 32 37 39 42 43 40 35 32 23 17 16 13 9 5 3 4 0 358 356 351 347 345 349 354 353 1 359 342 338 298 319 332 326 318 297 301 303 304 305 305 307 308 306 306 308 315 322 326 328 329
120 126 133 148 153 153 151 138 130 126 125 81 329 337 57 104 86 80 83 48 40 38 40 45 46 48 46 41 42 39 36 36 32 25 20 21 17 15 24 29 31 36 43 42 36 34 27 18 17 14 7 1 358 359 0 1 359 351 349 352 356 355 353 355 344 347 1 299 320 323 320 312 270 290 302 303 304 306 307 304 302 305 311 319 325 329 332 332
108 109 116 122 118 115 109 105 103 104 113 119 114 98 93 90 69 66 76 41 34 35 42 47 45 43 41 37 38 32 29 30 25 21 19 18 18 20 26 25 24 27 29 27 26 27 32 23 18 15 7 1 356 355 359 2 0 352 354 3 8 358 351 349 340 345 297 300 315 319 320 305 270 285 299 302 305 307 303 299 302 310 316 322 327 331 333 331
92 92 99 104 106 109 105 104 105 105 113 116 110 111 100 89 67 53 60 69 65 48 44 45 41 39 36 33 32 27 26 27 23 21 22 20 22 25 28 25 24 26 22 19 17 16 20 22 17 13 7 2 358 355 356 356 357 356 359 10 19 10 347 336 321 321 300 306 313 317 315 302 294 303 310 311 312 310 302 298 310 319 324 329 332 333 332 330
88 91 96 99 105 106 101 102 100 97 97 89 97 115 97 84 75 66 64 67 78 64 53 49 42 37 32 29 28 24 23 24 21 20 19 18 20 23 24 22 22 23 19 21 18 12 9 6 10 11 6 1 359 360 356 351 353 354 356 5 7 1 335 277 289 290 297 302 308 312 308 300 308 313 314 314 315 312 303 306 316 322 329 333 333 332 331 328
89 91 92 96 100 97 93 92 88 85 82 77 89 110 95 85 85 81 67 63 77 71 56 49 41 36 32 28 25 21 21 22 18 17 17 18 20 20 18 18 18 18 18 19 17 11 3 357 9 11 3 359 -0 4 360 354 355 351 350 355 353 349 308 273 285 287 292 294 300 303 296 296 303 307 310 313 314 312 311 314 317 322 328 329 328 328 326 325
84 82 82 83 84 81 78 78 78 78 75 71 82 88 88 91 92 83 70 66 66 58 47 39 30 29 28 26 23 19 17 19 17 16 17 18 20 18 15 16 15 14 16 16 13 8 358 359 16 11 2 2 4 6 2 357 356 350 349 351 346 341 313 288 293 296 301 291 287 297 297 301 308 310 311 313 313 312 313 314 315 319 322 323 324 325 324 324
78 73 69 68 67 65 63 62 63 74 70 58 82 86 88 91 86 80 72 64 59 50 43 36 27 25 22 20 21 17 13 17 16 15 17 16 16 15 14 15 15 14 14 14 14 6 351 354 9 4 1 4 3 3 3 360 359 358 351 344 341 339 330 318 304 301 308 277 285 299 299 304 312 312 312 316 313 309 311 313 316 319 322 325 326 325 324 324
75 70 65 63 61 60 63 58 53 69 68 56 87 88 89 87 80 75 67 57 51 43 37 35 29 24 20 17 18 15 12 15 14 14 17 16 12 12 12 13 14 14 11 11 12 5 353 348 357 359 360 2 1 360 2 1 359 355 343 339 344 345 323 329 330 300 304 284 285 300 301 303 308 308 312 314 312 314 319 321 322 323 326 328 325 323 323 324
71 70 66 63 61 64 69 63 57 70 78 76 87 89 86 82 75 68 61 52 45 40 35 33 27 21 19 16 15 14 13 14 12 12 15 16 12 9 10 12 14 12 9 10 10 5 359 345 343 354 359 359 358 359 0 357 350 342 339 342 350 351 319 324 325 288 292 295 290 304 304 302 306 310 311 310 312 321 326 325 325 325 326 324 322 322 323 324
69 72 74 71 68 69 68 59 49 63 88 76 85 89 83 78 70 60 54 43 40 38 33 29 23 19 17 14 13 13 13 12 8 9 13 13 12 9 7 9 13 11 8 9 8 4 3 349 338 349 358 1 359 358 356 350 341 338 340 342 344 344 338 331 320 296 291 286 292 312 297 295 304 312 311 309 314 321 325 325 325 324 322 321 320 321 323 324
67 75 78 76 73 68 66 62 51 67 81 79 82 82 76 71 62 54 46 36 34 30 25 22 17 15 14 11 11 8 9 8 4 7 9 8 11 10 5 5 10 10 7 8 8 5 3 353 342 347 356 358 355 353 351 346 339 335 336 339 339 341 345 340 319 309 303 285 286 294 283 293 304 315 316 314 317 321 325 325 323 321 320 320 321 322 324 325
69 76 77 74 70 65 63 75 72 70 78 79 77 74 70 64 57 50 39 32 29 21 18 15 11 12 11 8 8 5 5 6 3 6 6 5 8 6 2 3 6 7 7 6 6 5 3 356 349 348 352 354 351 350 349 342 335 333 335 340 339 339 342 339 314 311 308 299 295 291 277 291 304 316 318 317 321 324 326 324 321 320 320 320 322 324 325 326
77 79 77 73 70 66 62 74 72 69 74 74 71 67 63 56 49 42 32 27 22 16 13 9 8 10 7 5 5 3 4 4 3 4 4 2 3 2 360 359 0 4 5 6 4 4 6 1 354 350 350 351 349 348 347 341 337 336 336 336 332 329 330 325 316 311 304 300 305 302 278 294 307 317 317 319 324 326 325 322 320 320 320 322 324 325 327 328
78 81 77 70 69 69 67 69 67 65 68 69 66 62 55 48 42 33 26 20 15 13 8 5 7 7 4 4 2 1 4 5 2 1 1 0 359 359 357 352 356 1 2 3 3 3 8 8 0 355 351 350 348 347 343 340 339 335 329 327 324 320 319 317 319 316 298 299 311 310 279 299 310 317 318 321 326 326 324 321 320 321 322 324 326 327 330 331
72 78 75 70 66 61 63 66 61 58 63 64 61 57 46 38 33 23 19 14 9 8 4 4 6 3 3 2 360 360 1 2 3 358 357 359 356 355 353 346 351 358 359 0 1 2 9 11 5 3 349 328 327 322 322 323 324 324 322 320 317 315 313 313 318 311 294 303 308 296 287 302 312 318 320 324 328 326 322 321 322 323 324 326 329 330 331 332
65 72 74 73 67 54 57 65 60 54 56 55 54 50 38 30 24 14 12 9 5 4 3 3 3 1 2 1 359 359 357 357 1 356 355 357 353 352 349 343 347 355 357 357 356 1 8 2 356 354 340 315 304 302 307 309 312 318 319 316 316 314 307 308 312 303 302 307 304 300 302 307 313 319 322 326 328 324 322 322 323 325 327 330 332 332 332 333
63 67 68 69 66 56 55 61 59 51 48 43 41 40 31 23 16 8 6 5 3 2 1 1 1 359 359 359 359 358 355 355 357 355 356 356 352 350 346 341 345 350 354 354 354 358 1 353 348 348 345 337 321 315 323 320 318 321 320 318 321 316 306 308 310 309 315 311 300 308 315 312 313 320 324 326 327 324 323 324 325 328 330 332 332 333 334 336
64 65 62 61 63 60 55 54 53 47 40 33 30 30 24 16 10 5 3 2 1 2 2 1 359 358 357 357 356 354 354 355 354 354 356 353 351 350 344 338 341 348 352 352 351 355 357 351 345 345 347 348 339 331 333 331 328 326 322 325 329 320 310 311 312 315 320 312 301 312 318 314 316 322 324 324 325 324 325 327 329 331 332 333 334 336 337 338
61 62 61 57 57 58 52 47 44 40 33 25 22 22 17 10 6 3 2 2 1 1 3 0 358 358 357 355 354 352 352 352 351 351 352 350 350 349 344 339 340 346 350 348 349 355 355 349 346 345 347 352 350 341 339 337 335 331 329 334 333 323 313 310 316 322 323 315 312 316 318 316 320 324 321 322 325 326 328 331 332 333 334 335 337 338 338 338
57 59 59 53 51 52 48 41 37 32 25 17 15 16 11 6 4 2 2 3 1 1 1 359 357 356 354 353 353 352 351 350 346 344 345 345 348 350 348 344 341 343 347 347 350 354 352 349 349 346 346 354 352 343 343 344 339 335 339 338 332 325 319 318 325 329 326 321 320 320 317 317 321 322 321 323 327 330 332 333 333 334 335 336 337 337 337 336
56 55 56 51 47 47 43 37 32 26 19 13 11 11 6 4 4 3 2 2 1 0 357 356 355 353 352 353 352 350 349 347 343 340 339 338 345 351 351 343 339 340 345 350 351 352 352 351 351 349 347 351 348 343 346 351 344 339 344 338 332 325 320 320 325 327 326 323 321 320 320 319 321 323 324 327 331 333 334 334 333 335 338 338 336 335 334 332
54 52 52 47 42 41 36 31 26 20 15 12 9 7 4 3 3 2 3 2 359 356 354 352 352 351 351 352 351 350 348 344 342 340 337 333 339 350 350 340 337 341 347 352 352 351 352 351 352 352 346 344 347 346 347 353 354 348 341 332 324 319 317 319 322 324 325 324 322 321 320 318 320 325 329 330 331 333 333 333 333 335 338 339 336 334 331 329